sat.trackr.live / text

‹ back to catalog

STARLINK-31702

NORAD 59585 · 2024-076X

PAYLOAD ACTIVE UNKNOWN

§ Identity

Operator
Country
US
Launch date
2024-04-23
Launch site
AFETR
Launch vehicle
Mass (kg)
RCS (m²)

Purposes: comms

External: N2YO · Heavens-Above · Gunter

§ Orbital elements

Epoch: 2026-05-24T18:22:45.731712Z

Period
94.27 min
Inclination
43.0020°
Eccentricity
0.0002376
Mean motion
15.27580344 rev/d
Perigee alt
481.4 km
Apogee alt
484.7 km
Semi-major
6,861.2 km
B*
9.8887e-5
RAAN
299.6955°
Arg perigee
273.9042°
Mean anomaly
86.1538°
Rev number
11,813

§ Raw data

STARLINK-317021 59585U 24076X   26144.76580708  .00002460  00000+0  98887-4 0  99942 59585  43.0020 299.6955 0002376 273.9042  86.1538 15.27580344118137

JSON: /api/v1/satellites/59585 · /tle

For live sub-satellite position, see the globe view (requires WebGL).

§ Visibility from observer

Set your observer location to see the next 7 days of passes ≥ 10°. The values pass through the URL so the page stays shareable.

No JS? Fill the form by hand. The geolocation button needs JavaScript.